Location: Unspecified
(54.1780°N, 0.0000°E)
Time: 09:05:40
(UTC+00:00)

Explorer 7 - Pass Details

Date: 23 June 2019
Orbit: 485 x 680 km, 50.3° (Epoch: 17 July)

Event Time Altitude Azimuth Distance (km) Brightness Sun altitude
Rises 10:24:57 0° 250° (WSW) 2,817 10.3 54.3°
Reaches altitude 10° 10:27:13 10° 245° (WSW) 1,950 9.7 54.5°
Maximum altitude 10:31:33 50° 170° (S) 809 9.5 54.9°
Drops below altitude 10° 10:36:08 10° 96° (E) 2,061 10.2 55.3°
Sets 10:38:35 0° 91° (E) 2,996 10.9 55.5°
